Back to Previous

Regional Weather Roundup

168 
ASUS44 KLZK 201605
RWRLZK

WEATHER ROUNDUP FOR ARKANSAS
NATIONAL WEATHER SERVICE LITTLE ROCK AR
1000 AM CST MON FEB 20 2017

NOTE: "FAIR" INDICATES FEW OR NO CLOUDS BELOW 12,000 FEET WITH NO
SIGNIFICANT WEATHER AND/OR OBSTRUCTIONS TO VISIBILITY.

ARZ001-003-010-029-201700-
NORTHWEST ARKANSAS
  
CITY           SKY/WX    TMP DP  RH WIND       PRES   REMARKS
FAYETTEVILLE   CLOUDY    62  60  93 CALM      29.94F                  
FORT SMITH     CLOUDY    62  57  83 SE8       29.94S                  
HARRISON       CLOUDY    64  59  83 S15       29.99R                  
BENTONVILLE    CLOUDY    63  59  88 SE10      29.93F                  
ROGERS         CLOUDY    61  59  93 SE10      29.94F                  
SILOAM SPGS    CLOUDY    61  57  88 SE9       29.92R                  
HIGHFILL       CLOUDY    62  60  93 SE13      29.92F                  
SPRINGDALE     LGT RAIN  61  61 100 SE7       29.96F                  
$$

ARZ004-005-016-201700-
NORTH CENTRAL ARKANSAS
  
CITY           SKY/WX    TMP DP  RH WIND       PRES   REMARKS
BATESVILLE     PTSUNNY   66  55  68 SE6       30.07F                  
FLIPPIN        CLOUDY    66  54  63 S7        29.98S                  
MTN HOME       PTSUNNY   66  57  72 S9        30.00S                  
$$

ARZ040-041-201700-
WEST CENTRAL ARKANSAS
  
CITY           SKY/WX    TMP DP  RH WIND       PRES   REMARKS
MENA           CLOUDY    61  61 100 CALM      30.02R                  
MOUNT IDA      CLOUDY    66  60  81 VRB6      29.97F                  
$$

ARZ009-017-025-026-028-201700-
NORTHEAST ARKANSAS
  
CITY           SKY/WX    TMP DP  RH WIND       PRES   REMARKS
CORNING        FAIR      66  55  68 S12       30.09R                  
JONESBORO      CLOUDY    63  54  72 S12       30.09R                  
NEWPORT        CLOUDY    68  55  63 MISG      30.09R                  
WALNUT RIDGE     N/A     66  54  63 S18       30.07R VSB 1/2          
BLYTHEVILLE    CLOUDY    63  53  70 S6        30.11R                  
$$

ARZ022-023-033-042-044-201700-
CENTRAL ARKANSAS
  
CITY           SKY/WX    TMP DP  RH WIND       PRES   REMARKS
LITTLE ROCK    PTSUNNY   68  61  78 SE12      30.04S                  
N LITTLE ROCK    N/A     68  61  78 S10G18    30.04S                  
JACKSONVILLE   SUNNY     68  61  77 SE13      30.03S                  
SEARCY         MOSUNNY   67  59  75 SE12      30.07                   
HOT SPRINGS    CLOUDY    67  62  84 SE7       30.00F                  
RUSSELLVILLE   CLOUDY    63  57  81 E7        29.99F                  
CLINTON        CLOUDY    57  55  94 CALM      30.04S FOG              
$$

ARZ036-201700-
EAST ARKANSAS
  
CITY           SKY/WX    TMP DP  RH WIND       PRES   REMARKS
WEST MEMPHIS   CLOUDY    71  56  58 S13       30.09R                  
$$

ARZ050-053-066-070-073-201700-
SOUTHWEST ARKANSAS
  
CITY           SKY/WX    TMP DP  RH WIND       PRES   REMARKS
ARKADELPHIA    FAIR      69  63  81 S7        30.01S                  
CAMDEN         CLOUDY    70  59  68 SE7       30.03S                  
TEXARKANA      CLOUDY    60  57  89 W8        30.05R                  
EL DORADO      PTSUNNY   69  64  84 S8        30.04R                  
DE QUEEN       LGT RAIN  59  59 100 SE7       30.01S                  
$$

ARZ056-057-069-201700-
SOUTHEAST ARKANSAS
  
CITY           SKY/WX    TMP DP  RH WIND       PRES   REMARKS
PINE BLUFF     PTSUNNY   68  59  73 SE12      30.06S                  
STUTTGART      MOSUNNY   66  54  63 S14       30.08S                  
MONTICELLO     CLOUDY    67  59  75 SE9       30.07F                  

$$


  


USA.gov is the U.S. government's official web portal to all federal, state and local government web resources and services.